PDT,Max TemperatureF,Mean TemperatureF,Min TemperatureF,Max Dew PointF,MeanDew PointF,Min DewpointF,Max Humidity, Mean Humidity, Min Humidity, Max Sea Level PressureIn, Mean Sea Level PressureIn, Min Sea Level PressureIn, Max VisibilityMiles, Mean VisibilityMiles, Min VisibilityMiles, Max Wind SpeedMPH, Mean Wind SpeedMPH, Max Gust SpeedMPH,PrecipitationIn, CloudCover, Events, WindDirDegrees
2013-4-1,64,54,46,48,46,44,93,79,56,30.19,30.09,30.01,10,10,7,9,4,,0.00,5,,151
2013-4-2,55,52,50,48,46,45,87,79,67,30.22,30.20,30.16,10,10,10,8,4,,0.00,8,,161
2013-4-3,62,54,45,47,45,42,97,74,48,30.21,30.12,29.97,10,10,10,10,2,,0.00,3,,319
2013-4-4,57,54,50,54,50,46,100,90,75,29.95,29.75,29.65,10,7,2,10,4,,0.28,8,Rain,222
2013-4-5,59,54,50,52,49,47,100,88,69,29.90,29.83,29.76,10,8,2,13,7,22,0.65,8,Rain,163
2013-4-6,54,50,45,48,45,42,97,86,71,29.96,29.87,29.74,10,8,1,16,7,26,0.66,7,Rain,153
2013-4-7,45,44,42,45,41,39,100,93,87,29.92,29.70,29.50,10,6,2,14,6,16,1.08,8,Rain,131
2013-4-8,57,50,42,45,42,40,100,82,57,30.30,30.12,29.94,10,10,9,7,4,,0.03,7,Rain,148
2013-4-9,55,50,44,45,42,39,93,76,55,30.37,30.32,30.21,10,10,10,7,2,,0.00,6,,154
2013-4-10,60,54,48,52,45,39,94,74,55,30.28,30.10,29.95,10,8,1,20,7,29,0.28,8,Rain,165
2013-4-11,53,48,45,45,41,38,93,78,61,30.33,30.28,30.21,10,8,3,12,6,,0.08,7,Rain,308
2013-4-12,48,44,42,44,40,36,96,85,66,30.19,29.92,29.71,10,8,2,17,5,32,0.20,6,Rain,151
2013-4-13,50,44,39,40,37,33,96,80,62,30.03,29.93,29.82,10,9,2,17,8,24,0.37,8,Rain,172
2013-4-14,53,46,39,43,38,32,97,81,45,30.04,30.00,29.94,10,9,4,12,4,,0.33,6,Rain,134
2013-4-15,55,47,39,42,39,34,100,81,47,30.21,30.06,29.96,10,10,9,12,2,,0.03,5,Rain,342
2013-4-16,55,45,37,40,37,35,100,77,50,30.42,30.33,30.22,10,10,9,15,2,20,0.00,3,,325
2013-4-17,61,48,37,41,36,29,93,65,32,30.48,30.45,30.42,10,10,8,10,4,,0.00,3,,165
2013-4-18,53,48,44,48,43,37,93,81,66,30.48,30.41,30.25,10,9,6,9,5,17,0.19,8,Rain,148
2013-4-19,55,52,48,52,49,46,97,92,83,30.23,30.15,30.09,10,6,2,13,7,17,0.69,8,Rain,167
2013-4-20,55,52,48,47,44,42,90,77,64,30.30,30.27,30.24,10,10,10,13,8,23,0.02,8,,171
2013-4-21,53,49,42,45,42,38,93,81,63,30.39,30.28,30.24,10,8,2,12,6,,0.11,7,Rain,198
2013-4-22,59,48,36,41,36,28,100,70,33,30.54,30.48,30.41,10,9,1,14,4,,0.00,1,,311
2013-4-23,62,50,37,42,35,29,89,62,30,30.44,30.34,30.25,10,10,10,13,3,,0.00,1,,320
2013-4-24,68,54,39,42,38,32,89,58,26,30.35,30.24,30.09,10,10,10,12,4,,0.00,0,,316
2013-4-25,71,56,43,46,39,35,82,55,30,30.15,30.10,30.07,10,10,10,6,1,,0.00,0,,336
2013-4-26,69,58,46,49,46,43,93,71,40,30.27,30.23,30.19,10,10,7,10,3,16,0.00,2,,174
2013-4-27,57,55,53,49,44,35,86,67,45,30.25,30.22,30.19,10,10,5,14,7,23,0.03,6,Rain,158
2013-4-28,60,55,48,48,44,38,90,76,47,30.23,30.16,29.99,10,10,5,15,7,23,0.08,7,Rain,180
2013-4-29,55,50,43,48,41,31,100,78,40,30.20,30.06,29.94,10,8,1,12,5,21,0.21,8,Rain,167
2013-4-30,55,48,41,37,35,28,82,67,41,30.45,30.32,30.19,10,10,10,7,4,,0.00,4,Rain,14